Vorticity
6 6 5 5 5 4 5 6 5 6 6 7 7 -2 -2 10 9 8 7 7 6 6 7 6 5 7 9 8 7 5 5 7 7 7 6 6 6 7 7 7 6 5 4
5 6 7 6 4 5 5 5 6 9 6 13 9 9 -0 3 9 7 5 6 6 6 6 7 7 6 6 7 8 8 6 5 6 7 7 5 7 8 9 9 8 6 4
3 3 4 7 6 5 5 6 7 6 9 7 7 5 7 -1 9 6 5 5 6 5 6 6 5 5 5 5 5 6 7 5 5 5 16 -1 4 4 5 6 6 9 6
4 3 5 4 6 6 5 5 6 5 8 6 10 2 14 1 7 5 5 4 5 6 6 6 7 6 4 5 4 4 5 5 5 5 -3 5 3 4 4 5 4 4 5
3 3 4 4 5 6 6 7 6 8 7 9 10 9 4 9 6 5 5 6 5 6 6 6 6 7 6 5 5 4 5 5 5 5 6 4 5 4 5 4 5 6 6
6 5 4 4 4 6 6 6 7 6 8 9 8 9 7 7 9 9 8 7 6 6 7 7 6 7 6 5 4 5 4 6 5 5 5 5 4 3 4 4 5 5 5
7 6 5 4 4 6 5 6 7 6 6 7 9 9 9 8 8 8 9 11 10 10 9 9 8 6 7 7 6 4 4 6 7 6 6 5 4 5 5 6 7 7 5
2 5 6 5 3 5 6 7 7 7 6 8 10 6 7 7 6 5 5 5 5 5 7 9 11 9 7 7 7 7 5 6 8 7 6 7 8 7 4 5 5 4 2
7 3 4 5 7 5 5 6 7 8 6 7 6 7 6 5 4 5 4 4 5 7 6 3 7 8 9 9 9 9 8 8 8 7 6 6 3 4 3 4 3 4 2
4 5 4 5 6 7 6 5 7 8 7 6 5 5 6 5 5 5 5 5 5 8 5 6 7 4 6 6 6 5 5 6 5 4 2 -2 0 3 3 1 8 6 5
6 6 6 7 8 7 6 7 6 6 7 5 7 5 5 5 5 3 3 3 5 7 7 8 5 8 4 3 2 2 2 1 2 2 1 3 9 5 5 9 3 5 6
6 6 6 7 7 8 7 6 5 7 5 5 6 4 5 7 4 3 1 1 1 6 13 8 9 7 3 5 5 3 2 2 2 2 4 5 5 6 3 1 6 5 6
4 7 6 7 8 6 6 7 7 4 6 6 6 6 5 4 4 4 4 3 1 2 10 12 9 10 7 5 7 10 6 2 2 2 1 2 5 4 -5 12 -0 5 2
5 5 7 8 9 7 6 8 5 6 6 6 6 6 5 3 4 6 8 5 -0 4 8 13 11 11 9 7 5 6 10 12 7 3 4 7 7 6 4 3 5 7 6
7 5 8 8 8 6 6 8 6 5 6 8 7 6 6 5 3 6 6 1 3 5 12 16 12 12 11 8 6 7 8 10 8 8 8 10 12 8 5 5 7 7 4
12 6 10 9 8 7 8 7 6 6 5 7 7 7 7 6 6 6 4 4 1 10 14 14 10 10 11 9 8 10 6 7 8 7 6 7 8 6 6 6 8 5 5
12 10 14 7 9 9 8 7 7 6 6 6 7 8 8 5 8 8 1 2 2 11 17 13 9 8 8 8 8 8 8 6 5 5 7 7 7 7 7 10 7 5 4
15 17 15 10 6 9 8 9 7 5 6 6 6 8 7 7 6 14 2 3 2 10 13 14 8 8 9 8 8 8 8 9 8 8 8 9 10 10 11 8 6 6 5
13 10 13 10 9 11 9 6 4 5 5 3 6 7 9 8 5 9 5 3 4 10 12 12 10 9 9 9 9 9 8 10 9 9 8 7 7 6 6 6 6 5 4
9 6 18 11 13 12 9 6 5 4 3 2 6 8 7 8 8 4 6 3 5 10 13 8 10 8 8 6 6 7 8 7 7 7 6 6 6 6 5 5 6 6 5
9 12 9 9 10 8 7 4 3 2 2 2 5 8 7 6 7 4 6 4 8 12 12 7 7 7 8 7 6 6 6 6 7 6 6 5 6 6 7 7 6 6 6
5 21 19 7 6 4 3 3 3 7 7 7 6 8 7 6 5 4 4 3 6 10 10 13 6 8 8 8 8 8 7 7 8 7 7 6 6 6 6 6 6 6 6
11 7 8 17 16 11 9 9 8 8 9 10 9 8 8 8 5 4 3 4 5 6 6 9 10 6 6 8 8 7 9 5 5 6 7 8 7 6 6 6 6 7 7
10 9 10 10 9 20 7 9 7 7 8 9 9 7 7 6 4 5 4 2 3 5 5 5 4 5 5 3 5 5 7 7 6 5 6 6 6 6 7 7 6 5 4
4 6 1 3 2 11 12 13 8 10 8 8 7 9 7 6 4 4 5 3 3 6 5 5 8 7 5 4 4 4 4 6 6 8 9 9 8 7 6 3 8 12 14
2 1 5 1 0 6 3 9 2 -3 8 3 3 6 5 8 6 4 2 2 3 4 6 6 5 4 7 8 5 5 3 6 7 7 5 6 3 4 7 12 15 15 14
Height
5905 5903 5900 5899 5897 5895 5893 5892 5891 5890 5888 5887 5886 5885 5883 5881 5879 5877 5875 5873 5873 5872 5870 5869 5868 5867 5867 5867 5866 5864 5863 5864 5863 5862 5861 5860 5859 5859 5859 5858 5857 5857 5857
5905 5903 5901 5898 5896 5894 5892 5891 5890 5889 5888 5887 5886 5885 5883 5881 5879 5877 5875 5874 5872 5870 5870 5868 5866 5866 5865 5864 5865 5864 5863 5863 5862 5861 5860 5859 5858 5858 5859 5859 5858 5858 5857
5903 5899 5898 5897 5895 5894 5892 5891 5889 5887 5886 5885 5884 5883 5882 5880 5878 5876 5875 5873 5871 5870 5868 5867 5866 5864 5864 5863 5863 5862 5862 5861 5861 5861 5860 5860 5859 5859 5859 5858 5858 5858 5858
5900 5898 5897 5895 5894 5892 5890 5889 5887 5886 5884 5884 5882 5882 5880 5878 5877 5875 5873 5871 5870 5869 5867 5866 5865 5863 5862 5862 5862 5861 5860 5860 5860 5860 5860 5859 5859 5858 5858 5858 5858 5858 5858
5898 5897 5896 5893 5892 5890 5888 5887 5886 5884 5883 5882 5880 5879 5878 5876 5875 5873 5871 5870 5868 5867 5866 5864 5863 5862 5861 5860 5860 5859 5859 5858 5858 5859 5860 5858 5858 5858 5858 5858 5857 5857 5857
5896 5895 5893 5891 5890 5888 5887 5885 5883 5882 5880 5880 5878 5877 5876 5875 5873 5871 5870 5868 5866 5865 5864 5862 5860 5860 5860 5859 5858 5859 5858 5857 5857 5858 5857 5857 5857 5857 5857 5857 5857 5856 5856
5894 5892 5891 5889 5887 5886 5885 5883 5881 5880 5878 5877 5876 5875 5874 5872 5871 5869 5867 5866 5865 5863 5862 5861 5858 5857 5857 5857 5855 5855 5856 5856 5856 5855 5854 5855 5855 5856 5857 5856 5855 5854 5855
5889 5889 5887 5884 5884 5882 5881 5880 5879 5877 5876 5874 5873 5873 5872 5870 5868 5866 5865 5864 5863 5862 5860 5859 5857 5855 5854 5854 5854 5852 5852 5853 5854 5854 5853 5854 5855 5855 5855 5854 5853 5853 5853
5887 5884 5884 5881 5880 5879 5878 5877 5876 5875 5873 5872 5871 5870 5869 5867 5865 5864 5862 5861 5860 5859 5858 5857 5856 5853 5852 5851 5851 5850 5851 5850 5850 5851 5851 5852 5853 5853 5852 5851 5851 5851 5851
5882 5880 5879 5877 5876 5875 5873 5872 5871 5871 5869 5868 5867 5867 5865 5864 5862 5860 5859 5858 5857 5856 5855 5853 5852 5851 5850 5849 5848 5848 5848 5847 5848 5849 5849 5849 5848 5849 5848 5848 5848 5848 5848
5876 5875 5873 5872 5871 5870 5868 5867 5867 5866 5865 5864 5863 5862 5861 5860 5859 5856 5855 5854 5852 5852 5850 5849 5848 5847 5846 5846 5845 5845 5844 5844 5845 5846 5846 5846 5844 5844 5844 5845 5845 5845 5846
5871 5870 5868 5866 5865 5864 5863 5862 5862 5862 5861 5859 5858 5857 5856 5855 5854 5853 5851 5850 5848 5846 5845 5844 5843 5842 5842 5841 5841 5840 5839 5841 5841 5841 5841 5841 5840 5839 5839 5840 5840 5841 5841
5864 5864 5862 5861 5860 5858 5856 5856 5856 5856 5855 5854 5852 5852 5851 5850 5849 5847 5846 5845 5843 5842 5839 5837 5837 5836 5835 5836 5836 5834 5834 5835 5836 5835 5836 5836 5835 5835 5835 5835 5836 5837 5837
5857 5856 5855 5854 5853 5851 5850 5850 5850 5849 5849 5847 5846 5846 5845 5843 5843 5842 5841 5840 5838 5835 5833 5832 5830 5829 5829 5830 5830 5829 5828 5829 5829 5830 5831 5831 5830 5830 5830 5830 5831 5831 5831
5850 5848 5847 5846 5845 5843 5843 5843 5842 5841 5842 5840 5840 5839 5838 5836 5835 5835 5834 5833 5831 5829 5827 5825 5824 5823 5822 5823 5824 5823 5822 5821 5821 5823 5824 5825 5825 5825 5825 5824 5824 5825 5825
5842 5841 5838 5837 5836 5836 5835 5834 5834 5834 5833 5833 5832 5832 5831 5831 5829 5828 5826 5825 5823 5822 5819 5817 5816 5816 5816 5816 5817 5816 5815 5814 5815 5817 5819 5820 5820 5819 5818 5817 5817 5818 5820
5832 5831 5829 5827 5828 5829 5827 5825 5826 5825 5825 5825 5824 5824 5823 5822 5823 5821 5819 5819 5816 5813 5812 5810 5809 5809 5810 5810 5809 5809 5809 5808 5810 5811 5812 5812 5812 5811 5811 5811 5812 5812 5812
5820 5822 5819 5817 5818 5819 5818 5817 5817 5817 5817 5817 5816 5816 5815 5815 5815 5813 5812 5812 5808 5804 5804 5805 5803 5804 5803 5802 5803 5802 5801 5802 5802 5802 5802 5802 5803 5804 5805 5806 5806 5805 5805
5810 5810 5810 5807 5809 5810 5808 5808 5808 5808 5807 5807 5806 5806 5806 5806 5806 5806 5805 5806 5803 5799 5797 5797 5797 5798 5796 5796 5795 5794 5793 5795 5793 5793 5793 5794 5795 5797 5798 5798 5797 5796 5796
5802 5801 5801 5800 5800 5799 5799 5799 5799 5798 5798 5798 5797 5797 5797 5797 5797 5797 5797 5797 5795 5793 5791 5790 5789 5789 5789 5789 5788 5787 5787 5786 5786 5785 5786 5787 5788 5788 5787 5787 5787 5787 5787
5794 5796 5794 5793 5791 5790 5789 5789 5788 5788 5788 5789 5788 5789 5788 5788 5790 5790 5789 5789 5788 5786 5784 5783 5782 5780 5780 5781 5780 5780 5780 5779 5779 5779 5778 5779 5779 5779 5778 5778 5777 5776 5776
5784 5789 5786 5782 5781 5780 5779 5779 5779 5779 5779 5780 5780 5780 5778 5779 5782 5781 5781 5781 5780 5779 5778 5776 5776 5775 5774 5773 5772 5772 5772 5772 5772 5770 5770 5769 5769 5768 5768 5768 5768 5766 5764
5776 5774 5778 5776 5773 5770 5771 5771 5770 5770 5770 5771 5771 5770 5770 5771 5773 5772 5771 5771 5771 5770 5769 5768 5767 5766 5765 5765 5764 5764 5763 5763 5762 5762 5762 5761 5760 5759 5758 5757 5756 5755 5753
5769 5768 5767 5767 5764 5762 5762 5762 5762 5763 5763 5763 5763 5762 5761 5761 5761 5762 5761 5760 5759 5759 5758 5758 5756 5755 5755 5754 5753 5753 5753 5753 5752 5752 5752 5750 5750 5749 5748 5747 5746 5744 5742
5760 5760 5758 5756 5755 5753 5753 5754 5753 5753 5753 5753 5753 5753 5751 5749 5748 5748 5749 5748 5748 5747 5746 5746 5746 5745 5744 5742 5741 5741 5741 5742 5741 5741 5740 5740 5739 5738 5737 5736 5734 5732 5730
5750 5750 5748 5746 5744 5744 5743 5744 5743 5743 5744 5742 5741 5740 5738 5737 5736 5735 5734 5733 5732 5734 5735 5734 5733 5731 5731 5731 5731 5731 5729 5728 5728 5728 5727 5726 5726 5725 5723 5722 5719 5717 5717